Location: ?????????
(53.2086°N, 54.0693°E)
Time: 22:35:47
(UTC+00:00)

Cosmos 1782 - Pass Details

Date: 08 December 2019
Orbit: 538 x 551 km, 82.5° (Epoch: 22 January)

Event Time Altitude Azimuth Distance (km) Brightness Sun altitude
Rises 12:40:24 0° 171° (S) 2,704 6.7 -5.0°
Reaches altitude 10° 12:42:38 10° 164° (SSE) 1,813 5.7 -5.2°
Maximum altitude 12:46:23 41° 94° (E) 800 3.3 -5.7°
Drops below altitude 10° 12:50:09 10° 23° (NNE) 1,821 5.0 -6.2°
Enters shadow 12:52:23 - 17° (NNE) 2,711 5.9 -6.5°
